Quad City International Airport (MLI)


Airport Diagram
Current Weather/Forecast (VFR Conditions)
METAR KMLI 140252Z 16005KT 10SM CLR 22/18 A2996 RMK AO2 SLP142 T02170183 53006
TAF KMLI 132327Z 1400/1424 18007KT P6SM SCT040 FM141500 18010G20KT P6SM FEW250

All Charts
General
Chart Name Download
AIRPORT DIAGRAM
TAKEOFF MINIMUMS
ALTERNATE MINIMUMS
HOT SPOT

Approaches
Chart Name Download
ILS OR LOC RWY 09
ILS OR LOC RWY 27
RNAV (GPS) RWY 09
RNAV (GPS) RWY 13
RNAV (GPS) RWY 27
RNAV (GPS) RWY 31